Weather History for Fort Bragg, NC

Change the Weather History Date:

Tuesday, January 21, 2014

  Actual Average Record
Temperature  
Mean Temperature 46 °F -  
Max Temperature 59 °F 49 °F 73 °F (1999)
Min Temperature 30 °F 31 °F 16 °F (2008)
Degree Days  
Heating Degree Days 20    
Moisture  
Dew Point 32 °F    
Average Humidity 72    
Maximum Humidity 100    
Minimum Humidity 37    
Precipitation  
Precipitation 0.14 in - - ()
Sea Level Pressure  
Sea Level Pressure 29.67 in    
Wind  
Wind Speed 9 mph (NW)    
Max Wind Speed 21 mph    
Max Gust Speed 28 mph    
Visibility 10 miles    
Events Rain , Snow    
Averages and records for this station are not official NWS values.
T = Trace of Precipitation, MM = Missing Value Source: NWS Daily Summary

Daily Weather History Graph

Daily Weather History Graph

Search for Another Location

Airport:

Trip Planner

Search our weather history database for the weather conditions in past years. The results will help you decide how hot, cold, wet, or windy it might be!

Date:

Astronomy

Jan. 21, 2014 Rise Set
Actual Time 7:21 AM EST 5:33 PM EST
Civil Twilight 6:54 AM EST 6:00 PM EST
Nautical Twilight 6:23 AM EST 6:31 PM EST
Astronomical Twilight 5:53 AM EST 7:01 PM EST
Moon 10:50 PM EST (1/21) 10:03 AM EST (1/21)
Length of Visible Light 11h 06m
Length of Day
10h 11m
Waning Gibbous, 75% of the Moon is Illuminated
Jan 21
Waning Gibbous
Jan 24
Last Quarter
Jan 30
New
Feb 6
First Quarter
Feb 14
Full

Hourly Weather History & Observations

Time (EST) Temp. Windchill Dew Point Humidity Pressure Visibility Wind Dir Wind Speed Gust Speed Precip Events Conditions
12:58 AM 44.2 °F 41.8 °F 28.4 °F 54% 29.81 in 10.0 mi SW 4.6 mph - N/A   Clear
1:58 AM 45.7 °F 43.4 °F 27.1 °F 48% 29.80 in 10.0 mi South 4.6 mph - N/A   Clear
2:58 AM 41.9 °F - 30.0 °F 63% 29.78 in 10.0 mi South 1.2 mph - N/A   Clear
3:58 AM 39.7 °F - 27.7 °F 62% 29.77 in 10.0 mi SW 2.3 mph - N/A   Clear
4:58 AM 33.8 °F - 30.9 °F 89% 29.74 in 10.0 mi Calm Calm - N/A   Clear
5:58 AM 41.7 °F - 27.9 °F 58% 29.73 in 10.0 mi SW 2.3 mph - N/A   Clear
6:58 AM 40.6 °F - 28.2 °F 61% 29.71 in 10.0 mi Calm Calm - N/A   Clear
7:58 AM 40.3 °F 37.1 °F 28.8 °F 63% 29.69 in 10.0 mi SSW 4.6 mph - N/A   Clear
8:58 AM 44.4 °F 40.0 °F 30.2 °F 57% 29.69 in 10.0 mi SW 8.1 mph - N/A   Clear
9:58 AM 49.6 °F - 30.4 °F 48% 29.67 in 10.0 mi WSW 11.5 mph - N/A   Clear
10:58 AM 52.2 °F - 30.0 °F 43% 29.65 in 10.0 mi SW 12.7 mph - N/A   Clear
11:58 AM 55.2 °F - 30.4 °F 39% 29.60 in 10.0 mi SW 10.4 mph - N/A   Clear
12:58 PM 57.6 °F - 31.3 °F 37% 29.55 in 10.0 mi SW 9.2 mph - N/A   Partly Cloudy
1:58 PM 59.4 °F - 33.1 °F 37% 29.52 in 10.0 mi WSW 11.5 mph - N/A   Scattered Clouds
2:25 PM 59.0 °F - 33.8 °F 39% 29.51 in 10.0 mi SSW 6.9 mph - N/A Rain Light Rain
2:37 PM 59.0 °F - 37.4 °F 45% 29.50 in 10.0 mi Variable 5.8 mph - N/A   Scattered Clouds
2:58 PM 58.1 °F - 34.9 °F 42% 29.50 in 10.0 mi WNW 8.1 mph - 0.00 in   Partly Cloudy
3:58 PM 59.4 °F - 35.6 °F 41% 29.51 in 10.0 mi WNW 10.4 mph - N/A   Scattered Clouds
4:58 PM 52.9 °F - 32.7 °F 46% 29.53 in 10.0 mi NNW 9.2 mph - N/A   Mostly Cloudy
5:05 PM 51.8 °F - 32.0 °F 47% 29.52 in 10.0 mi North 9.2 mph - N/A Rain Light Rain
5:19 PM 51.8 °F - 32.0 °F 47% 29.52 in 10.0 mi NNW 6.9 mph - N/A   Scattered Clouds
5:27 PM 50.0 °F - 33.8 °F 54% 29.53 in 10.0 mi NNW 9.2 mph - N/A Rain Light Rain
5:40 PM 50.0 °F - 35.6 °F 58% 29.54 in 10.0 mi NNW 6.9 mph - N/A   Mostly Cloudy
5:58 PM 49.3 °F - 33.8 °F 55% 29.58 in 10.0 mi NW 18.4 mph 24.2 mph 0.00 in   Mostly Cloudy
6:03 PM 48.2 °F - 33.8 °F 58% 29.57 in 10.0 mi NW 20.7 mph 27.6 mph N/A Rain Light Rain
6:35 PM 44.6 °F 37.2 °F 37.4 °F 76% 29.61 in 10.0 mi WNW 17.3 mph 21.9 mph N/A Rain Light Rain
6:58 PM 42.3 °F 35.5 °F 38.5 °F 86% 29.64 in 7.0 mi NW 12.7 mph - 0.03 in Rain Rain
7:26 PM 41.0 °F 34.3 °F 37.4 °F 87% 29.64 in 10.0 mi NNW 11.5 mph - N/A Rain Light Rain
7:38 PM 41.0 °F 33.5 °F 37.4 °F 87% 29.65 in 10.0 mi NNW 13.8 mph - N/A Rain Light Rain
7:44 PM 41.0 °F 32.8 °F 37.4 °F 87% 29.66 in 10.0 mi NNW 16.1 mph 20.7 mph N/A Rain Light Rain
7:46 PM 41.0 °F 31.6 °F 37.4 °F 87% 29.66 in 10.0 mi NNW 20.7 mph 27.6 mph N/A Rain Rain
7:48 PM 41.0 °F 31.9 °F 37.4 °F 87% 29.66 in 10.0 mi NNW 19.6 mph 27.6 mph N/A Rain Rain
7:52 PM 39.2 °F 29.3 °F 37.4 °F 93% 29.66 in 9.0 mi NW 20.7 mph 27.6 mph N/A Rain Light Rain
7:54 PM 39.2 °F 30.2 °F 37.4 °F 93% 29.67 in 9.0 mi NNW 17.3 mph 27.6 mph N/A   Mostly Cloudy
7:58 PM 39.7 °F 30.0 °F 36.5 °F 88% 29.68 in 9.0 mi NNW 20.7 mph 27.6 mph 0.04 in Rain Rain
8:22 PM 37.4 °F 29.3 °F 35.6 °F 93% 29.68 in 10.0 mi NNW 12.7 mph 20.7 mph N/A Rain Light Rain
8:34 PM 35.6 °F 26.2 °F 32.0 °F 87% 29.69 in 10.0 mi NNW 15.0 mph 23.0 mph N/A Snow Light Snow
8:56 PM 35.6 °F 26.6 °F 32.0 °F 87% 29.70 in 10.0 mi North 13.8 mph 21.9 mph N/A   Mostly Cloudy
8:58 PM 35.1 °F 26.4 °F 32.5 °F 91% 29.71 in 10.0 mi NNW 12.7 mph 21.9 mph 0.07 in   Mostly Cloudy
9:02 PM 35.6 °F 26.6 °F 32.0 °F 87% 29.70 in 10.0 mi NNW 13.8 mph 21.9 mph N/A   Mostly Cloudy
9:04 PM 35.6 °F 27.5 °F 32.0 °F 87% 29.70 in 10.0 mi North 11.5 mph 21.9 mph N/A   Mostly Cloudy
9:08 PM 35.6 °F 27.5 °F 32.0 °F 87% 29.70 in 10.0 mi NNW 11.5 mph 20.7 mph N/A   Scattered Clouds
9:14 PM 35.6 °F 25.9 °F 32.0 °F 87% 29.70 in 10.0 mi NNW 16.1 mph 21.9 mph N/A   Mostly Cloudy
9:18 PM 35.6 °F 25.2 °F 32.0 °F 87% 29.71 in 10.0 mi NNW 18.4 mph 26.5 mph N/A   Mostly Cloudy
9:19 PM 35.6 °F 25.2 °F 32.0 °F 87% 29.71 in 10.0 mi NNW 18.4 mph 26.5 mph N/A Snow Light Snow
9:35 PM 33.8 °F 25.8 °F 32.0 °F 93% 29.73 in 8.0 mi NNW 10.4 mph - N/A Snow Light Snow
9:57 PM 32.0 °F 22.1 °F 32.0 °F 100% 29.75 in 10.0 mi North 13.8 mph 21.9 mph N/A Snow Light Snow
9:58 PM 33.4 °F 23.9 °F 30.4 °F 89% 29.76 in 10.0 mi North 13.8 mph 21.9 mph 0.00 in Snow Light Snow
10:00 PM 32.0 °F 22.5 °F 30.2 °F 93% 29.75 in 10.0 mi NNW 12.7 mph 21.9 mph N/A   Overcast
10:10 PM 32.0 °F 23.0 °F 30.2 °F 93% 29.76 in 10.0 mi North 11.5 mph 25.3 mph N/A   Overcast
10:16 PM 32.0 °F 22.1 °F 28.4 °F 87% 29.76 in 10.0 mi North 13.8 mph 25.3 mph N/A   Overcast
10:22 PM 32.0 °F 23.0 °F 28.4 °F 87% 29.76 in 10.0 mi NNW 11.5 mph 20.7 mph N/A   Overcast
10:44 PM 32.0 °F 23.0 °F 28.4 °F 87% 29.77 in 10.0 mi North 11.5 mph - N/A   Overcast
10:58 PM 32.5 °F 24.8 °F 29.1 °F 87% 29.78 in 10.0 mi NNW 9.2 mph - 0.00 in   Overcast
11:14 PM 32.0 °F 24.2 °F 28.4 °F 87% 29.79 in 10.0 mi NNW 9.2 mph 20.7 mph N/A   Overcast
11:31 PM 32.0 °F 23.6 °F 26.6 °F 80% 29.79 in 10.0 mi North 10.4 mph 18.4 mph N/A   Overcast
11:46 PM 32.0 °F 22.1 °F 26.6 °F 80% 29.81 in 10.0 mi North 13.8 mph 23.0 mph N/A   Overcast
11:58 PM 30.9 °F 19.4 °F 26.1 °F 82% 29.82 in 10.0 mi North 17.3 mph 23.0 mph 0.00 in   Overcast